Time,TemperatureF,DewpointF,PressureIn,WindDirection,WindDirectionDegrees,WindSpeedMPH,WindSpeedGustMPH,Humidity,HourlyPrecipIn,Conditions,Clouds,dailyrainin,SoftwareType,DateUTC
2013-07-06 00:02:00,73.0,73.0,30.11,SE,129,5.0,7.0,100,0.00,,,0.00,,2013-07-06 04:02:00,
2013-07-06 00:33:00,73.0,73.0,30.10,SSE,152,2.0,9.0,100,0.00,,,0.00,,2013-07-06 04:33:00,
2013-07-06 00:43:00,73.0,73.0,30.10,SSE,148,5.0,5.0,100,0.00,,,0.00,,2013-07-06 04:43:00,
2013-07-06 00:53:00,73.0,73.0,30.10,SSW,205,5.0,5.0,100,0.00,,,0.00,,2013-07-06 04:53:00,
2013-07-06 01:02:00,73.0,73.0,30.10,SSE,148,4.0,6.0,100,0.00,,,0.00,,2013-07-06 05:02:00,
2013-07-06 01:12:00,73.0,73.0,30.10,SSE,148,4.0,6.0,100,0.00,,,0.00,,2013-07-06 05:12:00,
2013-07-06 01:22:00,73.0,73.0,30.10,South,187,0.0,0.0,100,0.00,,,0.00,,2013-07-06 05:22:00,
2013-07-06 01:33:00,73.0,73.0,30.10,ESE,108,0.0,0.0,100,0.00,,,0.00,,2013-07-06 05:33:00,
2013-07-06 01:42:00,73.0,73.0,30.10,SSE,152,5.0,5.0,100,0.00,,,0.00,,2013-07-06 05:42:00,
2013-07-06 01:53:00,73.0,73.0,30.10,East,93,5.0,5.0,100,0.00,,,0.00,,2013-07-06 05:53:00,
2013-07-06 02:02:00,72.0,72.0,30.10,SE,143,5.0,5.0,100,0.00,,,0.00,,2013-07-06 06:02:00,
2013-07-06 02:12:00,72.0,72.0,30.09,SE,125,2.0,4.0,100,0.00,,,0.00,,2013-07-06 06:12:00,
2013-07-06 02:22:00,72.0,72.0,30.09,SSE,167,3.0,7.0,100,0.00,,,0.00,,2013-07-06 06:22:00,
2013-07-06 02:34:00,72.0,72.0,30.09,South,170,4.0,4.0,100,0.00,,,0.00,,2013-07-06 06:34:00,
2013-07-06 02:43:00,72.0,72.0,30.09,SE,143,5.0,5.0,100,0.00,,,0.00,,2013-07-06 06:43:00,
2013-07-06 02:53:00,71.0,71.0,30.09,ESE,117,7.0,7.0,100,0.00,,,0.00,,2013-07-06 06:53:00,
2013-07-06 03:02:00,71.0,71.0,30.09,South,172,6.0,6.0,100,0.00,,,0.00,,2013-07-06 07:02:00,
2013-07-06 03:12:00,71.0,71.0,30.09,East,89,5.0,5.0,100,0.00,,,0.00,,2013-07-06 07:12:00,
2013-07-06 03:22:00,71.0,71.0,30.09,SE,136,3.0,3.0,100,0.00,,,0.00,,2013-07-06 07:22:00,
2013-07-06 03:33:00,70.0,70.0,30.09,SE,145,4.0,5.0,100,0.00,,,0.00,,2013-07-06 07:33:00,
2013-07-06 03:44:00,70.0,70.0,30.08,SE,136,5.0,6.0,100,0.00,,,0.00,,2013-07-06 07:44:00,
2013-07-06 03:52:00,70.0,70.0,30.09,SSE,153,4.0,6.0,100,0.00,,,0.00,,2013-07-06 07:52:00,
2013-07-06 04:02:00,70.0,70.0,30.09,SSE,162,4.0,4.0,100,0.00,,,0.00,,2013-07-06 08:02:00,
2013-07-06 04:12:00,69.0,69.0,30.09,SSE,149,4.0,5.0,100,0.00,,,0.00,,2013-07-06 08:12:00,
2013-07-06 04:21:00,69.0,69.0,30.09,SE,125,2.0,0.0,100,0.00,,,0.00,,2013-07-06 08:21:00,
2013-07-06 04:34:00,69.0,69.0,30.09,ESE,108,0.0,0.0,100,0.00,,,0.00,,2013-07-06 08:34:00,
2013-07-06 04:43:00,69.0,69.0,30.09,ESE,108,0.0,0.0,100,0.00,,,0.00,,2013-07-06 08:43:00,
2013-07-06 04:54:00,69.0,69.0,30.09,ESE,104,0.0,0.0,100,0.00,,,0.00,,2013-07-06 08:54:00,
2013-07-06 05:02:00,69.0,69.0,30.09,SE,129,0.0,0.0,100,0.00,,,0.00,,2013-07-06 09:02:00,
2013-07-06 05:11:00,69.0,69.0,30.09,South,180,2.0,4.0,100,0.00,,,0.00,,2013-07-06 09:11:00,
2013-07-06 05:33:00,68.0,68.0,30.09,SSE,156,2.0,4.0,100,0.00,,,0.00,,2013-07-06 09:33:00,
2013-07-06 05:43:00,68.0,68.0,30.09,SE,129,0.0,0.0,100,0.00,,,0.00,,2013-07-06 09:43:00,
2013-07-06 05:52:00,68.0,68.0,30.09,SE,129,0.0,0.0,100,0.00,,,0.00,,2013-07-06 09:52:00,
2013-07-06 06:02:00,68.0,68.0,30.09,South,188,4.0,4.0,100,0.02,,,0.00,,2013-07-06 10:02:00,
2013-07-06 06:11:00,68.0,68.0,30.09,SE,129,0.0,0.0,100,0.02,,,0.00,,2013-07-06 10:11:00,
2013-07-06 06:33:00,68.0,68.0,30.09,SSE,158,3.0,0.0,100,0.02,,,0.00,,2013-07-06 10:33:00,
2013-07-06 06:42:00,68.0,68.0,30.09,SE,141,0.0,0.0,100,0.02,,,0.00,,2013-07-06 10:42:00,
2013-07-06 06:53:00,68.0,68.0,30.09,SE,141,0.0,0.0,100,0.02,,,0.00,,2013-07-06 10:53:00,
2013-07-06 07:11:00,68.0,68.0,30.10,SE,141,0.0,0.0,100,0.03,,,0.00,,2013-07-06 11:11:00,
2013-07-06 07:33:00,68.0,68.0,30.10,SE,141,0.0,0.0,100,0.03,,,0.00,,2013-07-06 11:33:00,
2013-07-06 07:53:00,68.0,68.0,30.10,SE,141,0.0,0.0,100,0.03,,,0.00,,2013-07-06 11:53:00,
2013-07-06 08:12:00,68.0,68.0,30.11,SE,141,0.0,0.0,100,0.01,,,0.00,,2013-07-06 12:12:00,
2013-07-06 08:33:00,68.0,68.0,30.11,SE,141,0.0,0.0,100,0.01,,,0.00,,2013-07-06 12:33:00,
2013-07-06 08:43:00,68.0,68.0,30.11,SE,141,0.0,0.0,100,0.01,,,0.00,,2013-07-06 12:43:00,
2013-07-06 08:52:00,68.0,68.0,30.11,SE,141,0.0,0.0,100,0.01,,,0.00,,2013-07-06 12:52:00,
2013-07-06 09:01:00,67.0,67.0,30.11,SE,141,0.0,0.0,100,0.02,,,0.00,,2013-07-06 13:01:00,
2013-07-06 09:12:00,67.0,67.0,30.10,SE,141,0.0,0.0,100,0.02,,,0.00,,2013-07-06 13:12:00,
2013-07-06 09:22:00,67.0,67.0,30.11,SE,141,0.0,0.0,100,0.02,,,0.00,,2013-07-06 13:22:00,
2013-07-06 09:33:00,67.0,67.0,30.11,SE,141,0.0,0.0,100,0.02,,,0.00,,2013-07-06 13:33:00,
2013-07-06 09:43:00,67.0,67.0,30.11,SE,141,0.0,0.0,100,0.02,,,0.00,,2013-07-06 13:43:00,
2013-07-06 09:52:00,67.0,67.0,30.11,SE,141,0.0,0.0,100,0.02,,,0.00,,2013-07-06 13:52:00,
2013-07-06 10:02:00,68.0,68.0,30.11,SE,141,0.0,0.0,100,0.00,,,0.00,,2013-07-06 14:02:00,
2013-07-06 10:12:00,68.0,68.0,30.10,SE,141,0.0,0.0,100,0.00,,,0.00,,2013-07-06 14:12:00,
2013-07-06 10:22:00,68.0,68.0,30.10,SE,141,0.0,0.0,100,0.00,,,0.00,,2013-07-06 14:22:00,
2013-07-06 10:34:00,68.0,68.0,30.10,SE,141,0.0,0.0,100,0.00,,,0.00,,2013-07-06 14:34:00,
2013-07-06 10:42:00,68.0,68.0,30.11,North,11,0.0,0.0,100,0.00,,,0.00,,2013-07-06 14:42:00,
2013-07-06 10:53:00,68.0,68.0,30.11,North,11,0.0,0.0,100,0.00,,,0.00,,2013-07-06 14:53:00,
2013-07-06 11:02:00,69.0,69.0,30.10,NW,309,0.0,0.0,100,0.00,,,0.00,,2013-07-06 15:02:00,
2013-07-06 11:12:00,69.0,69.0,30.10,NW,309,0.0,0.0,100,0.00,,,0.00,,2013-07-06 15:12:00,
2013-07-06 11:22:00,69.0,69.0,30.11,NW,309,0.0,0.0,100,0.00,,,0.00,,2013-07-06 15:22:00,
2013-07-06 11:33:00,69.0,69.0,30.11,NW,309,0.0,0.0,100,0.00,,,0.00,,2013-07-06 15:33:00,
2013-07-06 11:43:00,69.0,69.0,30.12,NW,309,0.0,0.0,100,0.00,,,0.00,,2013-07-06 15:43:00,
2013-07-06 11:53:00,69.0,69.0,30.12,SW,219,6.0,6.0,100,0.00,,,0.00,,2013-07-06 15:53:00,
2013-07-06 12:07:00,68.0,68.0,30.12,SSE,160,2.0,5.0,100,0.02,,,0.00,,2013-07-06 16:07:00,
2013-07-06 12:16:00,67.0,67.0,30.12,WSW,245,4.0,5.0,100,0.02,,,0.00,,2013-07-06 16:16:00,
2013-07-06 12:27:00,68.0,68.0,30.11,West,273,1.0,0.0,100,0.02,,,0.00,,2013-07-06 16:27:00,
2013-07-06 12:44:00,68.0,68.0,30.11,WSW,240,5.0,5.0,100,0.02,,,0.00,,2013-07-06 16:44:00,
2013-07-06 13:01:00,69.0,69.0,30.11,SE,125,4.0,0.0,100,0.02,,,0.00,,2013-07-06 17:01:00,
2013-07-06 13:24:00,70.0,70.0,30.11,SSE,165,4.0,0.0,100,0.01,,,0.00,,2013-07-06 17:24:00,
2013-07-06 13:32:00,71.0,71.0,30.11,ESE,105,3.0,3.0,100,0.01,,,0.00,,2013-07-06 17:32:00,
2013-07-06 13:43:00,71.0,71.0,30.11,SE,141,0.0,0.0,100,0.01,,,0.00,,2013-07-06 17:43:00,
2013-07-06 13:52:00,72.0,71.0,30.11,SE,146,1.0,0.0,98,0.01,,,0.00,,2013-07-06 17:52:00,
2013-07-06 14:12:00,74.0,72.0,30.09,SSW,201,0.0,0.0,92,0.00,,,0.00,,2013-07-06 18:12:00,
2013-07-06 14:24:00,75.0,71.0,30.09,East,96,0.0,0.0,88,0.00,,,0.00,,2013-07-06 18:24:00,
2013-07-06 14:34:00,75.0,71.0,30.09,SW,218,0.0,0.0,86,0.00,,,0.00,,2013-07-06 18:34:00,
2013-07-06 14:54:00,76.0,71.0,30.09,SE,141,4.0,5.0,85,0.00,,,0.00,,2013-07-06 18:54:00,
2013-07-06 15:01:00,75.0,70.0,30.09,SSE,150,0.0,4.0,85,0.00,,,0.00,,2013-07-06 19:01:00,
2013-07-06 15:12:00,75.0,70.0,30.09,East,101,1.0,0.0,84,0.00,,,0.00,,2013-07-06 19:12:00,
2013-07-06 15:30:00,75.0,71.0,30.09,East,84,2.0,2.0,86,0.00,,,0.00,,2013-07-06 19:30:00,
2013-07-06 15:43:00,76.0,71.0,30.09,WSW,250,1.0,5.0,85,0.00,,,0.00,,2013-07-06 19:43:00,
2013-07-06 15:53:00,76.0,71.0,30.09,SSE,148,3.0,0.0,85,0.00,,,0.00,,2013-07-06 19:53:00,
2013-07-06 16:23:00,76.0,70.0,30.09,SSE,158,4.0,4.0,83,0.00,,,0.00,,2013-07-06 20:23:00,
2013-07-06 16:31:00,77.0,72.0,30.08,ESE,120,0.0,6.0,84,0.00,,,0.00,,2013-07-06 20:31:00,
2013-07-06 16:55:00,76.0,72.0,30.08,SSE,148,2.0,5.0,87,0.00,,,0.00,,2013-07-06 20:55:00,
2013-07-06 17:14:00,75.0,72.0,30.08,SE,136,6.0,6.0,90,0.00,,,0.00,,2013-07-06 21:14:00,
2013-07-06 17:33:00,76.0,73.0,30.08,SE,142,3.0,5.0,89,0.00,,,0.00,,2013-07-06 21:33:00,
2013-07-06 17:44:00,76.0,73.0,30.08,SE,142,3.0,5.0,89,0.00,,,0.00,,2013-07-06 21:44:00,
2013-07-06 17:54:00,75.0,72.0,30.07,SSE,153,5.0,0.0,90,0.00,,,0.00,,2013-07-06 21:54:00,
2013-07-06 18:00:00,75.0,72.0,30.07,SE,138,5.0,7.0,91,0.00,,,0.00,,2013-07-06 22:00:00,
2013-07-06 18:14:00,76.0,73.0,30.07,SSE,167,6.0,6.0,90,0.00,,,0.00,,2013-07-06 22:14:00,
2013-07-06 18:25:00,76.0,73.0,30.06,SE,138,5.0,6.0,89,0.00,,,0.00,,2013-07-06 22:25:00,
2013-07-06 18:34:00,76.0,73.0,30.06,SSE,150,5.0,0.0,90,0.00,,,0.00,,2013-07-06 22:34:00,
2013-07-06 18:53:00,75.0,72.0,30.06,ESE,121,5.0,5.0,90,0.00,,,0.00,,2013-07-06 22:53:00,
2013-07-06 19:45:00,76.0,73.0,30.06,SW,231,0.0,5.0,89,0.00,,,0.00,,2013-07-06 23:45:00,
2013-07-06 20:23:00,76.0,72.0,30.06,South,169,5.0,5.0,86,0.00,,,0.00,,2013-07-07 00:23:00,
2013-07-06 20:44:00,75.0,73.0,30.05,SSE,152,7.0,8.0,93,0.00,,,0.00,,2013-07-07 00:44:00,
2013-07-06 21:13:00,75.0,73.0,30.05,SSE,148,4.0,7.0,94,0.00,,,0.00,,2013-07-07 01:13:00,
2013-07-06 21:22:00,75.0,73.0,30.05,SE,125,8.0,8.0,94,0.00,,,0.00,,2013-07-07 01:22:00,
2013-07-06 21:33:00,71.0,71.0,30.06,SSE,156,5.0,5.0,100,0.00,,,0.00,,2013-07-07 01:33:00,
2013-07-06 21:53:00,71.0,71.0,30.06,SSE,149,6.0,6.0,100,0.00,,,0.00,,2013-07-07 01:53:00,
2013-07-06 22:31:00,71.0,71.0,30.06,SSE,156,5.0,5.0,100,0.00,,,0.00,,2013-07-07 02:31:00,
2013-07-06 23:33:00,71.0,71.0,30.07,South,176,5.0,7.0,100,0.00,,,0.00,,2013-07-07 03:33:00,
2013-07-06 23:55:00,71.0,71.0,30.07,South,176,5.0,7.0,100,0.00,,,0.00,,2013-07-07 03:55:00,